Regional Weather Roundup
Issued by NWS

Home | Current Version | Previous Version | Graphics & Text | Print | Product List | Glossary On
Versions: 1 2 3 4 5 6 7 8 9 10 11 12 13 14 15 16 17 18 19 20 21 22 23 24 25 26 27 28 29 30 31 32 33 34 35 36 37 38 39 40 41 42 43 44 45 46 47 48 49 50
000
ASUS45 KSLC 232110
RWRUT

UTAH REGIONAL WEATHER ROUNDUP
NATIONAL WEATHER SERVICE SALT LAKE CITY UT
300 PM MDT MON OCT 23 2017

UTZ001>011-023>025-232200-

NORTHERN UTAH

CITY           SKY/WX    TMP DP  RH WIND       PRES   REMARKS
BRIGHAM CITY   SUNNY     62  23  22 W3        30.59F
DUGWAY         MOSUNNY   65  36  34 N10G16    30.64R
HILL AFB       PTSUNNY   59  30  33 N7        30.60S
LOGAN          SUNNY     61  32  33 NE5       30.59F
OGDEN          SUNNY     61  32  33 NW10      30.59F
SALT LAKE CITY PTSUNNY   64  36  35 NW10      30.58F
TOOELE VALLEY  SUNNY     61  37  41 N9        30.59F
WENDOVER       SUNNY     62  40  44 SE9       30.58F
HEBER CITY       N/A     64  30  27 SW9       30.54F
WEST JORDAN    SUNNY     60  40  46 NW14G24   30.59F

$$

UTZ011>015-024>027-232200-

CENTRAL/NORTHEAST UTAH

CITY           SKY/WX    TMP DP  RH WIND       PRES   REMARKS
PROVO AIRPORT  SUNNY     62  36  37 W7        30.58F
MOAB/CANYONLAN SUNNY     70  28  21 VRB5      30.39F
DELTA          SUNNY     63  34  34 NW7       30.56S
PRICE          SUNNY    N/A N/A N/A NW25G32   30.48S
RICHFIELD      SUNNY     64  34  32 NE5G12    30.54F
ROOSEVELT      SUNNY     68  27  21 NE5       30.47S
VERNAL         SUNNY     66  29  24 SW6       30.45F

$$

UTZ013>016-019>022-027-232200-

SOUTHERN UTAH

CITY           SKY/WX    TMP DP  RH WIND       PRES   REMARKS
BRYCE CANYON   SUNNY     66  29  24 N14       30.56F
CEDAR CITY     SUNNY     71  33  24 N17G23    30.49F
MILFORD        SUNNY     67  36  31 N22G32    30.52F
ST GEORGE      CLEAR     81  30  15 SW8       30.32F
HANKSVILLE     SUNNY     73  28  19 E6        30.43F
KANAB          SUNNY     81  28  15 NW2G12    30.41F
BLANDING         N/A     71  23  16 W9        30.49S

$$

REGIONAL REPORTS     COLORADO/ARIZONA

CITY           SKY/WX    TMP DP  RH WIND       PRES   REMARKS
CRAIG, CO      SUNNY     62  19  19 NW18G26   30.48S
GRAND JUNCTION SUNNY     68  31  25 NW8       30.41F
RIFLE, CO      SUNNY     66  29  24 W6        30.42F
MONTROSE, CO   SUNNY     64  28  25 N7        30.46F
CORTEZ, CO     SUNNY     71  25  17 NW18G24   30.40F
COLORADO CITY    N/A     81  32  17 NW9       30.43F
PAGE, AZ       SUNNY     73  26  17 NE7       30.39F
GRAND CANYON   SUNNY     74  20  13 NE5       30.49F
KINGMAN, AZ    SUNNY     86  27  11 N14G20    30.30F
FLAGSTAFF, AZ  SUNNY     72  17  12 E10G18    30.49F

$$

REGIONAL REPORTS    NEVADA/IDAHO/WYOMING

CITY           SKY/WX    TMP DP  RH WIND       PRES   REMARKS
LAS VEGAS, NV  SUNNY     89  32  13 NE13G22   30.27F
ELY, NY        LGT RAIN  67  35  30 N15G23    30.58F
ELKO, NV       SUNNY     66  35  31 CALM      30.59F
POCATELLO, ID  MOSUNNY   55  38  52 W12G18    30.64S
BURLEY, ID     MOSUNNY   56  35  45 W13G22    30.60F
FORT BRIDGER,    N/A     58  19  22 W20G28    30.61S
EVANSTON, WY   SUNNY     57  16  20 NW12G22   30.62R
ROCK SPRINGS,  SUNNY     54  19  25 NW21G29   30.52S
KEMMERER, WY   SUNNY     52  23  32 W16G30    30.59F

$$



USA.gov is the U.S. government's official web portal to all federal, state and local government web resources and services.